Location: Newark
(51.2625°N, 13.3939°E)
Time: 02:58:40
(UTC+00:00)

Explorer 7 - Pass Details

Date: 14 November 2019
Orbit: 485 x 680 km, 50.3° (Epoch: 13 December)

Event Time Altitude Azimuth Distance (km) Brightness Sun altitude
Rises 00:22:16 0° 199° (SSW) 2,886 - -52.2°
Reaches altitude 10° 00:25:22 10° 178° (S) 1,942 - -51.9°
Maximum altitude 00:28:03 16° 140° (SE) 1,558 - -51.7°
Drops below altitude 10° 00:30:40 10° 102° (ESE) 1,871 - -51.4°
Sets 00:33:34 0° 81° (E) 2,727 - -51.1°
